Jj Sky — VRJA6 — position and weather

sailwx.info

Track history (hours):
 
Tides and Currents Weather Stations Pressure Air Temp Water Temp Dewpoint Dewpoint Depression Visibility Wind Speed Wind Dir Waves Ship Positions

Jj Sky

Last reported at 2014-Oct-17 05:19 UTC. Time now 2014-Oct-23 04:38 UTC.
Position N 31°18' E 121°46'.

Length 148 m; draft 8.4 m.

Type: Ship. MMSI: 477397500.

Date/timePositionNaut miles runAvg speedWind from/ knotsBaromVisibWave heightAir tempDewpointWater temp
2014-Oct-17 05:19N 31°18' E 121°46'5 3.9
2014-Oct-17 04:05N 31°20' E 121°40'0 0.0
2014-Oct-17 02:30N 31°20' E 121°40'0 0.1
2014-Oct-17 01:20N 31°20' E 121°40'0 0.0
2014-Oct-16 22:28N 31°20' E 121°40'0 0.1
2014-Oct-16 21:34N 31°20' E 121°40'0 0.0
2014-Oct-16 18:29N 31°20' E 121°40'0 0.0
2014-Oct-16 17:05N 31°20' E 121°40'0 0.1
2014-Oct-16 16:15N 31°20' E 121°40'0 0.0
2014-Oct-16 15:33N 31°20' E 121°40'0 0.3
2014-Oct-16 14:30N 31°20' E 121°41'1 1.0
2014-Oct-16 13:25N 31°21' E 121°41'0 0.1
2014-Oct-16 12:13N 31°21' E 121°41'0 0.1
2014-Oct-16 11:18N 31°21' E 121°41'0 0.0
2014-Oct-16 09:17N 31°21' E 121°41'0 0.1
2014-Oct-16 08:23N 31°21' E 121°41'0 0.0
2014-Oct-16 07:28N 31°21' E 121°41'0 0.0
2014-Oct-16 06:07N 31°21' E 121°41'0 0.2
2014-Oct-16 05:31N 31°21' E 121°41'0 0.0
2014-Oct-16 03:24N 31°21' E 121°41'0 0.1
2014-Oct-16 02:12N 31°21' E 121°41'0 0.0
2014-Oct-16 00:23N 31°21' E 121°41'0 0.0
2014-Oct-15 16:31N 31°21' E 121°41'0 0.0
2014-Oct-15 15:25N 31°21' E 121°41'0 0.0
2014-Oct-15 13:30N 31°21' E 121°41'0 0.0
2014-Oct-15 09:10N 31°21' E 121°41'0 0.0
2014-Oct-15 05:12N 31°21' E 121°41'0 0.0
2014-Oct-15 03:29N 31°21' E 121°41'0 0.0
2014-Oct-15 01:17N 31°21' E 121°41'0 0.1
2014-Oct-15 00:27N 31°21' E 121°41'1 0.2
2014-Oct-14 18:14N 31°20' E 121°40'0 0.1
2014-Oct-14 17:24N 31°20' E 121°40'0 0.0
2014-Oct-14 15:33N 31°20' E 121°40'0 0.0
2014-Oct-14 14:26N 31°20' E 121°40'0 0.1
2014-Oct-14 10:20N 31°20' E 121°41'  
2014-Oct-11 02:20N 34°01' E 130°20'1817.6
2014-Oct-11 01:19N 34°03' E 130°41'45214.2
2014-Oct-09 17:33N 35°08' E 139°44'1313.3
2014-Oct-09 16:33N 35°21' E 139°42'6 6.1
2014-Oct-09 15:31N 35°27' E 139°41'0 0.0
2014-Oct-09 14:33N 35°27' E 139°41'0 0.0
2014-Oct-09 13:33N 35°27' E 139°41'0 0.0
2014-Oct-09 12:32N 35°27' E 139°41'0 0.0
2014-Oct-09 11:32N 35°27' E 139°41'0 0.0
2014-Oct-09 10:32N 35°27' E 139°41'3 2.9
2014-Oct-09 09:34N 35°27' E 139°45'8 8.0
2014-Oct-09 08:33N 35°35' E 139°48'3 0.3
2014-Oct-08 22:33N 35°37' E 139°46'7 6.9
2014-Oct-08 21:33N 35°32' E 139°52'1313.3
2014-Oct-08 20:33N 35°21' E 139°45'1110.9
2014-Oct-08 19:33N 35°10' E 139°46'  
Track history (hours):
 
Tides and Currents Weather Stations Pressure Air Temp Water Temp Dewpoint Dewpoint Depression Visibility Wind Speed Wind Dir Waves Ship Positions

Jj Sky

Last reported at 2014-Oct-17 05:19 UTC. Time now 2014-Oct-23 04:38 UTC.
Position N 31°18' E 121°46'.

Length 148 m; draft 8.4 m.

Type: Ship. MMSI: 477397500.

Date/timePositionNaut miles runAvg speedWind from/ knotsBaromVisibWave heightAir tempDewpointWater temp
2014-Oct-17 05:19N 31°18' E 121°46'5 3.9
2014-Oct-17 04:05N 31°20' E 121°40'0 0.0
2014-Oct-17 02:30N 31°20' E 121°40'0 0.1
2014-Oct-17 01:20N 31°20' E 121°40'0 0.0
2014-Oct-16 22:28N 31°20' E 121°40'0 0.1
2014-Oct-16 21:34N 31°20' E 121°40'0 0.0
2014-Oct-16 18:29N 31°20' E 121°40'0 0.0
2014-Oct-16 17:05N 31°20' E 121°40'0 0.1
2014-Oct-16 16:15N 31°20' E 121°40'0 0.0
2014-Oct-16 15:33N 31°20' E 121°40'0 0.3
2014-Oct-16 14:30N 31°20' E 121°41'1 1.0
2014-Oct-16 13:25N 31°21' E 121°41'0 0.1
2014-Oct-16 12:13N 31°21' E 121°41'0 0.1
2014-Oct-16 11:18N 31°21' E 121°41'0 0.0
2014-Oct-16 09:17N 31°21' E 121°41'0 0.1
2014-Oct-16 08:23N 31°21' E 121°41'0 0.0
2014-Oct-16 07:28N 31°21' E 121°41'0 0.0
2014-Oct-16 06:07N 31°21' E 121°41'0 0.2
2014-Oct-16 05:31N 31°21' E 121°41'0 0.0
2014-Oct-16 03:24N 31°21' E 121°41'0 0.1
2014-Oct-16 02:12N 31°21' E 121°41'0 0.0
2014-Oct-16 00:23N 31°21' E 121°41'0 0.0
2014-Oct-15 16:31N 31°21' E 121°41'0 0.0
2014-Oct-15 15:25N 31°21' E 121°41'0 0.0
2014-Oct-15 13:30N 31°21' E 121°41'0 0.0
2014-Oct-15 09:10N 31°21' E 121°41'0 0.0
2014-Oct-15 05:12N 31°21' E 121°41'0 0.0
2014-Oct-15 03:29N 31°21' E 121°41'0 0.0
2014-Oct-15 01:17N 31°21' E 121°41'0 0.1
2014-Oct-15 00:27N 31°21' E 121°41'1 0.2
2014-Oct-14 18:14N 31°20' E 121°40'0 0.1
2014-Oct-14 17:24N 31°20' E 121°40'0 0.0
2014-Oct-14 15:33N 31°20' E 121°40'0 0.0
2014-Oct-14 14:26N 31°20' E 121°40'0 0.1
2014-Oct-14 10:20N 31°20' E 121°41'  
2014-Oct-11 02:20N 34°01' E 130°20'1817.6
2014-Oct-11 01:19N 34°03' E 130°41'45214.2
2014-Oct-09 17:33N 35°08' E 139°44'1313.3
2014-Oct-09 16:33N 35°21' E 139°42'6 6.1
2014-Oct-09 15:31N 35°27' E 139°41'0 0.0
2014-Oct-09 14:33N 35°27' E 139°41'0 0.0
2014-Oct-09 13:33N 35°27' E 139°41'0 0.0
2014-Oct-09 12:32N 35°27' E 139°41'0 0.0
2014-Oct-09 11:32N 35°27' E 139°41'0 0.0
2014-Oct-09 10:32N 35°27' E 139°41'3 2.9
2014-Oct-09 09:34N 35°27' E 139°45'8 8.0
2014-Oct-09 08:33N 35°35' E 139°48'3 0.3
2014-Oct-08 22:33N 35°37' E 139°46'7 6.9
2014-Oct-08 21:33N 35°32' E 139°52'1313.3
2014-Oct-08 20:33N 35°21' E 139°45'1110.9
2014-Oct-08 19:33N 35°10' E 139°46'  

Dump ship's entire track history